Regional Weather Roundup
Issued by NWS Sterling, VA

Home | Current Version | Previous Version | Text Only | Print | Product List | Glossary Off
Versions: 1 2 3 4 5 6 7 8 9 10 11 12 13 14 15 16 17 18 19 20 21 22 23 24 25 26 27

000
ASUS41 KLWX 261211
RWRLWX

REGIONAL WEATHER ROUNDUP
NATIONAL WEATHER SERVICE BALTIMORE MD/WASHINGTON DC
800 AM EDT SUN MAR 26 2017

Note: "FAIR" indicates few or no clouds below 12,000 feet
with no significant weather and/or obstructions to visibility.
 TC=TEMPERATURE CELSIUS

 * =Non NWS site. Station does not report precipitation (e.g. rain,
    snow, etc.), thunder, or fog.

DCZ001-MDZ009-015-VAZ040>042-051-053>054-261300-
WASHINGTON METRO

CITY           SKY/WX    TMP DP  RH WIND       PRES   REMARKS
WASHINGTON NAT CLOUDY    48  44  86 E15       30.32R
DULLES         CLOUDY    48  41  76 E7        30.30R
ANDREWS AFB    CLOUDY    45  42  90 E14       30.30R
FT BELVOIR     CLOUDY    48  44  83 VRB3      30.30R
QUANTICO       CLOUDY    50  46  86 E9        30.31R
COLLEGE PARK*  CLOUDY    46  41  81 E8        30.32R
LEESBURG*      CLOUDY    46  45  93 E12       30.31R
MANASSAS*      CLOUDY    49  43  80 E9        30.30R

$$

MDZ006>007-011-014-261300-
BALTIMORE METRO

CITY           SKY/WX    TMP DP  RH WIND       PRES   REMARKS
BWI AIRPORT    CLOUDY    45  41  86 E16       30.33R
MD SCIENCE CTR   N/A     47  38  71 MISG      30.35R
MARTIN STATE   CLOUDY    46  43  87 E10G17    30.36R
ANNAPOLIS      CLOUDY    48  43  82 E12       30.33R
FORT MEADE*    CLOUDY    45  37  76 E10       30.36R

$$

MDZ012-015-019>023-261300-
MARYLAND EASTERN SHORE

CITY           SKY/WX    TMP DP  RH WIND       PRES   REMARKS
OCEAN CITY     CLOUDY    45  43  93 NE12      30.33R FOG
SALISBURY      CLOUDY    45  45 100 E10       30.32R FOG
BAY BRIDGE AP* CLOUDY    46  41  81 E10       30.34R HAZE
CAMBRIDGE*     CLOUDY    45  43  93 NE12      30.32R FOG
EASTON*        CLOUDY    46  41  81 E12G18    30.37R

$$

MDZ017>025-261300-
SOUTHERN MARYLAND

CITY           SKY/WX    TMP DP  RH WIND       PRES   REMARKS
PATUXENT RIVER CLOUDY    47  47 100 E12       30.31R FOG
ST INIGOES     CLOUDY    48  46  93 NE9       30.29R FOG
LEONARDTOWN*   CLOUDY    46  45  93 E7        30.31R

$$

MDZ003>005-261300-
NORTH CENTRAL MARYLAND

CITY           SKY/WX    TMP DP  RH WIND       PRES   REMARKS
FREDERICK*     CLOUDY    48  43  81 E8        30.34R
HAGERSTOWN APT CLOUDY    47  41  80 E8        30.28S
WESTMINSTER*   CLOUDY    45  39  81 E7G16     30.31S

$$

MDZ501>502-261300-
WESTERN MARYLAND

CITY           SKY/WX    TMP DP  RH WIND       PRES   REMARKS
OAKLAND*       FOG       43  43 100 SE16G22   30.17S VSB<1/4
CUMBERLAND*    MOCLDY    50  43  76 E7        30.28R

$$

VAZ025>031-261300-
SHENANDOAH VALLEY

CITY           SKY/WX    TMP DP  RH WIND       PRES   REMARKS
WINCHESTER*    CLOUDY    45  41  87 E8        30.27R
FRONT ROYAL*   PTCLDY    46  43  87 NE10      30.25R
LURAY*         MOCLDY    50  46  87 N9        30.22R
NEW MARKET*    CLOUDY    49  44  84 N14G20    30.21R
STAUNTON*      CLOUDY    50  47  90 NW3       30.23R
WAYNESBORO*    CLOUDY    55  50  84 SE8       30.21R

$$

WVZ021-048>050-054>055-261300-
EASTERN WEST VIRGINIA PANHANDLE

CITY           SKY/WX    TMP DP  RH WIND       PRES   REMARKS
MARTINSBURG    CLOUDY    48  41  76 NE6       30.28R
PETERSBURG*    CLOUDY    53  48  84 CALM      30.22R HAZE

$$

VAZ036>039-050-261300-
CENTRAL FOOTHILLS

CITY           SKY/WX    TMP DP  RH WIND       PRES   REMARKS
CHARLOTTESVILL MOCLDY    53  46  77 NE9       30.24R
CULPEPER*      CLOUDY    50  44  79 NE6       30.29R
ORANGE*        CLOUDY    48  43  81 NE8       30.28R
GORDONSVILLE*  PTCLDY    50  46  85 NE8       30.25R
WARRENTON*     CLOUDY    50  41  71 NE6       30.28S

$$

VAZ055>057-261300-
NORTH AND CENTRAL PIEDMONT

CITY           SKY/WX    TMP DP  RH WIND       PRES   REMARKS
FREDERICKSBRG* CLOUDY    49  45  86 NE9       30.28R
STAFFORD*      CLOUDY    48  45  87 NE7       30.33R

$$

NCZ024-NYZ072-PAZ021-071-VAZ022-071-261300-
OTHER REGIONAL OBSERVATIONS

CITY           SKY/WX    TMP DP  RH WIND       PRES   REMARKS
NEW YORK CITY  CLOUDY    37  31  78 E14G22    30.46R WCI  28
PHILADELPHIA   CLOUDY    43  36  76 E15       30.39R
PITTSBURGH     CLOUDY    57  50  77 SE9       30.08R
ROANOKE        CLOUDY    55  49  80 SE5       30.21R
RICHMOND       PTSUNNY   56  53  90 E3        30.25R
RALEIGH        CLOUDY    55  51  86 CALM      30.23R

$$

ANZ530>537-261300-
MARINE OBSERVATIONS

STATION/POSITION TIME  TEMP    WIND        PRES
                       AIR SEA DIR/SP/G
                 (UTC) (F)     (DEG/KT/KT) (MB)
THOMAS PT LIGHT  1200   45 45   80/ 14/ 15   N/A
BALT KEY BRIDGE  1148   45      70/ 10/ 12 1027.4R
COVE POINT       1148   46      90/ 10/ 12 1026.9R
LEWISETTA        1148   48 49   80/  9/ 12 1025.6R
SOLOMONS ISLAND  1148   47 47   80/ 11/ 14   N/A
PINEY POINT      1142          110/ 13/ 15   N/A

$$





USA.gov is the U.S. government's official web portal to all federal, state and local government web resources and services.